Zurück zum Katalog

STARLINK-35455

AktivKommunikationVLEO
NORAD 66152·PAYLOAD·🇺🇸 United States

Gestartet Oct 25, 2025 von Cape Canaveral Space Force Station

Loading…

Nächste Überflüge (nächste 24 Stunden)

TLE

AktuellSource: CelesTrak SupGP

Epoche: Sep 14, 2026, 15:01 UTC

1 66152C 25240G   26257.62618056 -.00023053  00000+0 -68130-3 0  2571
2 66152  53.1572 261.1034 0001232  79.3274 280.9219 15.34392439    17

Verfolge STARLINK-35455 in Echtzeit mit AllMySat

Download on the App Store